BOX26 EDDM-EDDP

Flight info

Callsign BOX26
Flight time 0h 36m
Altitude 28000
Route EDDM/26L N0474F280 INPU2S INPUD Y102 UPALA M726 LASGA T953 VOCIM T954 GOXLI GOXL1R EDDP/08R
Aircraft B77F/H-V/N

Departure

Time 2026-05-07 19:37
Airport Munich Airport (EDDM)

Arrival

Time 2026-05-07 20:13
Airport Leipzig/Halle Airport (EDDP)
Time Latitude Longitude Altitude Speed Heading
2026-05-07 19:07 48.34861 11.76846 1470 ft 0 kts 354°
2026-05-07 19:22 48.34851 11.76848 1459 ft 2 kts 354°
2026-05-07 19:22 48.34834 11.76851 1461 ft 2 kts 353°
2026-05-07 19:23 48.34818 11.76854 1459 ft 2 kts 353°
2026-05-07 19:23 48.34801 11.76856 1462 ft 2 kts
2026-05-07 19:23 48.34785 11.76851 1459 ft 2 kts 22°
2026-05-07 19:23 48.34770 11.76839 1459 ft 2 kts 39°
2026-05-07 19:24 48.34760 11.76822 1459 ft 2 kts 68°
2026-05-07 19:24 48.34757 11.76813 1459 ft 0 kts 81°
2026-05-07 19:28 48.34758 11.76814 1459 ft 1 kts 81°
2026-05-07 19:28 48.34763 11.76860 1459 ft 9 kts 81°
2026-05-07 19:28 48.34773 11.76985 1464 ft 14 kts 84°
2026-05-07 19:29 48.34783 11.77126 1461 ft 14 kts 83°
2026-05-07 19:29 48.34793 11.77266 1463 ft 13 kts 83°
2026-05-07 19:29 48.34782 11.77367 1464 ft 8 kts 127°
2026-05-07 19:29 48.34733 11.77399 1463 ft 8 kts 170°
2026-05-07 19:30 48.34695 11.77407 1465 ft 0 kts 172°
2026-05-07 19:30 48.34678 11.77411 1465 ft 6 kts 172°
2026-05-07 19:31 48.34638 11.77443 1459 ft 7 kts 123°
2026-05-07 19:31 48.34633 11.77514 1467 ft 7 kts 88°
2026-05-07 19:31 48.34639 11.77602 1463 ft 11 kts 84°
2026-05-07 19:31 48.34650 11.77743 1463 ft 16 kts 83°
2026-05-07 19:32 48.34666 11.77937 1467 ft 21 kts 83°
2026-05-07 19:32 48.34684 11.78174 1463 ft 24 kts 83°
2026-05-07 19:32 48.34704 11.78421 1466 ft 24 kts 83°
2026-05-07 19:32 48.34722 11.78668 1463 ft 24 kts 84°
2026-05-07 19:33 48.34740 11.78912 1466 ft 24 kts 83°
2026-05-07 19:33 48.34759 11.79159 1471 ft 24 kts 83°
2026-05-07 19:33 48.34778 11.79406 1467 ft 24 kts 84°
2026-05-07 19:33 48.34796 11.79653 1461 ft 24 kts 83°
2026-05-07 19:34 48.34815 11.79901 1471 ft 24 kts 83°
2026-05-07 19:34 48.34834 11.80143 1465 ft 23 kts 83°
2026-05-07 19:34 48.34852 11.80357 1464 ft 17 kts 83°
2026-05-07 19:34 48.34838 11.80490 1460 ft 12 kts 120°
2026-05-07 19:35 48.34770 11.80552 1463 ft 12 kts 170°
2026-05-07 19:35 48.34692 11.80569 1470 ft 10 kts 174°
2026-05-07 19:35 48.34619 11.80557 1459 ft 12 kts 202°
2026-05-07 19:35 48.34543 11.80468 1461 ft 16 kts 223°
2026-05-07 19:36 48.34473 11.80337 1460 ft 16 kts 242°
2026-05-07 19:36 48.34452 11.80126 1472 ft 33 kts 264°
2026-05-07 19:36 48.34397 11.79412 1462 ft 112 kts 263°
2026-05-07 19:36 48.34280 11.77851 1478 ft 184 kts 264°
2026-05-07 19:37 48.34118 11.75863 2151 ft 190 kts 264°
2026-05-07 19:37 48.33962 11.73889 3148 ft 191 kts 264°
2026-05-07 19:37 48.33796 11.71831 3588 ft 210 kts 264°
2026-05-07 19:37 48.33618 11.69545 3901 ft 233 kts 264°
2026-05-07 19:38 48.33742 11.67120 4548 ft 238 kts 291°
2026-05-07 19:38 48.34794 11.65166 5143 ft 250 kts 328°
2026-05-07 19:38 48.36472 11.64317 5748 ft 261 kts 350°
2026-05-07 19:38 48.38300 11.64047 6480 ft 268 kts 352°
2026-05-07 19:39 48.40185 11.63700 7184 ft 275 kts 349°
2026-05-07 19:39 48.42078 11.63263 8102 ft 276 kts 348°
2026-05-07 19:39 48.43984 11.62811 8956 ft 278 kts 347°
2026-05-07 19:39 48.45227 11.62419 9457 ft 280 kts 340°
2026-05-07 19:40 48.47730 11.61174 10451 ft 287 kts 336°
2026-05-07 19:40 48.49671 11.60103 10754 ft 310 kts 336°
2026-05-07 19:40 48.51782 11.58933 10974 ft 336 kts 336°
2026-05-07 19:40 48.54068 11.57685 11261 ft 360 kts 338°
2026-05-07 19:41 48.56490 11.56644 11918 ft 373 kts 346°
2026-05-07 19:41 48.59080 11.56025 12776 ft 380 kts 349°
2026-05-07 19:41 48.61715 11.55467 13703 ft 385 kts 349°
2026-05-07 19:41 48.64390 11.54909 14561 ft 389 kts 349°
2026-05-07 19:42 48.67078 11.54344 15414 ft 392 kts 349°
2026-05-07 19:42 48.69789 11.53766 16248 ft 396 kts 349°
2026-05-07 19:42 48.72531 11.53174 17062 ft 400 kts 349°
2026-05-07 19:42 48.75305 11.52569 17872 ft 404 kts 348°
2026-05-07 19:43 48.78072 11.51961 18613 ft 409 kts 348°
2026-05-07 19:43 48.80910 11.51335 19298 ft 413 kts 348°
2026-05-07 19:43 48.83764 11.50703 19989 ft 416 kts 348°
2026-05-07 19:43 48.86646 11.50065 20670 ft 420 kts 348°
2026-05-07 19:44 48.89561 11.49418 21346 ft 424 kts 349°
2026-05-07 19:44 48.92490 11.48768 22001 ft 428 kts 349°
2026-05-07 19:44 48.95461 11.48108 22634 ft 433 kts 349°
2026-05-07 19:44 48.98464 11.47439 23285 ft 437 kts 349°
2026-05-07 19:45 49.01455 11.46772 23874 ft 441 kts 349°
2026-05-07 19:45 49.04505 11.46091 24403 ft 444 kts 349°
2026-05-07 19:45 49.07587 11.45403 24962 ft 448 kts 349°
2026-05-07 19:45 49.10678 11.44712 25061 ft 448 kts 349°
2026-05-07 19:46 49.12721 11.44255 25065 ft 448 kts 349°
2026-05-07 19:46 49.16822 11.43337 25065 ft 450 kts 349°
2026-05-07 19:46 49.19934 11.42722 25139 ft 453 kts 351°
2026-05-07 19:46 49.23073 11.42245 25668 ft 456 kts 352°
2026-05-07 19:47 49.26237 11.41814 26294 ft 457 kts 353°
2026-05-07 19:47 49.28381 11.41527 26682 ft 458 kts 353°
2026-05-07 19:47 49.31568 11.41093 27213 ft 461 kts 353°
2026-05-07 19:47 49.34759 11.40643 27688 ft 465 kts 352°
2026-05-07 19:48 49.37992 11.40173 28108 ft 469 kts 352°
2026-05-07 19:48 49.41250 11.39689 28063 ft 472 kts 352°
2026-05-07 19:48 49.47760 11.38709 28069 ft 468 kts 352°
2026-05-07 19:49 49.54250 11.37724 28074 ft 468 kts 352°
2026-05-07 19:49 49.60745 11.36736 28066 ft 469 kts 353°
2026-05-07 19:50 49.67210 11.35752 28062 ft 469 kts 353°
2026-05-07 19:50 49.73712 11.34761 28040 ft 470 kts 353°
2026-05-07 19:51 49.80228 11.33764 28060 ft 469 kts 353°
2026-05-07 19:51 49.86736 11.32766 28048 ft 469 kts 353°
2026-05-07 19:52 49.93242 11.31766 28057 ft 469 kts 353°
2026-05-07 19:52 49.99713 11.30768 28054 ft 470 kts 353°
2026-05-07 19:53 50.06222 11.29762 28069 ft 470 kts 353°
2026-05-07 19:53 50.09478 11.29258 27865 ft 472 kts 353°
2026-05-07 19:53 50.12763 11.28748 27319 ft 471 kts 353°
2026-05-07 19:54 50.16002 11.28245 26817 ft 465 kts 353°
2026-05-07 19:54 50.19218 11.27745 26325 ft 459 kts 353°
2026-05-07 19:54 50.22340 11.27260 25825 ft 454 kts 353°
2026-05-07 19:54 50.25473 11.26771 25368 ft 450 kts 353°
2026-05-07 19:55 50.28582 11.26286 24896 ft 446 kts 353°
2026-05-07 19:55 50.31656 11.25805 24429 ft 439 kts 353°
2026-05-07 19:55 50.34645 11.25336 23992 ft 433 kts 353°
2026-05-07 19:55 50.37623 11.24869 23511 ft 428 kts 353°
2026-05-07 19:56 50.40581 11.24405 22973 ft 423 kts 353°
2026-05-07 19:56 50.43503 11.23945 22466 ft 418 kts 353°
2026-05-07 19:56 50.46380 11.23492 21958 ft 414 kts 353°
2026-05-07 19:56 50.49233 11.23043 21450 ft 410 kts 353°
2026-05-07 19:57 50.52022 11.22603 20952 ft 395 kts 353°
2026-05-07 19:57 50.54677 11.22184 20436 ft 382 kts 353°
2026-05-07 19:57 50.57280 11.21772 19949 ft 372 kts 353°
2026-05-07 19:57 50.59848 11.21366 19497 ft 369 kts 353°
2026-05-07 19:58 50.62412 11.21344 19180 ft 366 kts
2026-05-07 19:58 50.64945 11.22099 19091 ft 371 kts 14°
2026-05-07 19:58 50.67371 11.23502 19083 ft 369 kts 22°
2026-05-07 19:58 50.69703 11.25189 19078 ft 368 kts 24°
2026-05-07 19:59 50.71996 11.26903 19074 ft 368 kts 24°
2026-05-07 19:59 50.74328 11.28649 18775 ft 374 kts 24°
2026-05-07 19:59 50.76687 11.30403 18329 ft 375 kts 24°
2026-05-07 19:59 50.79054 11.32151 17829 ft 373 kts 24°
2026-05-07 20:00 50.81372 11.33855 17305 ft 368 kts 24°
2026-05-07 20:00 50.83673 11.35543 16797 ft 363 kts 24°
2026-05-07 20:00 50.85968 11.37223 16325 ft 361 kts 24°
2026-05-07 20:00 50.88245 11.38891 15844 ft 359 kts 24°
2026-05-07 20:01 50.90522 11.40559 15362 ft 358 kts 24°
2026-05-07 20:01 50.92781 11.42216 14900 ft 356 kts 24°
2026-05-07 20:01 50.94971 11.43826 14419 ft 345 kts 24°
2026-05-07 20:01 50.97113 11.45402 13957 ft 333 kts 24°
2026-05-07 20:02 50.99182 11.46925 13427 ft 322 kts 24°
2026-05-07 20:02 51.01180 11.48432 12909 ft 312 kts 28°
2026-05-07 20:02 51.02823 11.50599 12394 ft 305 kts 48°
2026-05-07 20:02 51.04107 11.53254 11975 ft 301 kts 53°
2026-05-07 20:03 51.05298 11.55980 11601 ft 299 kts 54°
2026-05-07 20:03 51.06468 11.58706 11223 ft 297 kts 54°
2026-05-07 20:03 51.07612 11.61387 10813 ft 297 kts 54°
2026-05-07 20:03 51.08771 11.64115 10406 ft 297 kts 54°
2026-05-07 20:04 51.09934 11.66820 9995 ft 294 kts 50°
2026-05-07 20:04 51.11441 11.68936 9495 ft 288 kts 26°
2026-05-07 20:04 51.13298 11.70115 9007 ft 288 kts 17°
2026-05-07 20:04 51.15210 11.71020 8480 ft 283 kts 15°
2026-05-07 20:05 51.17090 11.71849 7959 ft 277 kts 14°
2026-05-07 20:05 51.18908 11.72636 7453 ft 271 kts 15°
2026-05-07 20:05 51.20637 11.73821 6936 ft 272 kts 30°
2026-05-07 20:05 51.22233 11.75457 6483 ft 274 kts 34°
2026-05-07 20:06 51.23819 11.77178 5970 ft 276 kts 34°
2026-05-07 20:06 51.25405 11.78907 5461 ft 273 kts 34°
2026-05-07 20:06 51.26939 11.80579 4950 ft 266 kts 34°
2026-05-07 20:06 51.28448 11.82222 4583 ft 259 kts 34°
2026-05-07 20:07 51.29929 11.83834 4321 ft 254 kts 34°
2026-05-07 20:07 51.31392 11.85424 4058 ft 254 kts 34°
2026-05-07 20:07 51.32855 11.87013 3806 ft 254 kts 34°
2026-05-07 20:07 51.34299 11.88581 3555 ft 254 kts 34°
2026-05-07 20:08 51.35764 11.90172 3298 ft 254 kts 34°
2026-05-07 20:08 51.37223 11.91755 3080 ft 247 kts 34°
2026-05-07 20:08 51.38602 11.93258 3003 ft 230 kts 37°
2026-05-07 20:08 51.39559 11.95131 3015 ft 215 kts 69°
2026-05-07 20:09 51.39905 11.97449 2991 ft 214 kts 78°
2026-05-07 20:09 51.40165 11.99708 2995 ft 199 kts 81°
2026-05-07 20:09 51.40315 12.01896 2788 ft 199 kts 84°
2026-05-07 20:10 51.40511 12.06175 2267 ft 181 kts 84°
2026-05-07 20:10 51.40599 12.08120 2008 ft 168 kts 84°
2026-05-07 20:10 51.40681 12.09921 1796 ft 159 kts 84°
2026-05-07 20:10 51.40764 12.11698 1576 ft 161 kts 84°
2026-05-07 20:11 51.40845 12.13474 1342 ft 160 kts 84°
2026-05-07 20:11 51.40928 12.15232 1137 ft 157 kts 84°
2026-05-07 20:11 51.41004 12.16983 947 ft 157 kts 85°
2026-05-07 20:11 51.41083 12.18712 741 ft 158 kts 84°
2026-05-07 20:12 51.41161 12.20479 501 ft 157 kts 85°
2026-05-07 20:12 51.41241 12.22118 460 ft 133 kts 86°
2026-05-07 20:12 51.41296 12.23349 469 ft 89 kts 86°
2026-05-07 20:12 51.41331 12.24110 473 ft 60 kts 85°
2026-05-07 20:13 51.41350 12.24491 470 ft 17 kts 85°
2026-05-07 20:13 51.41346 12.24595 470 ft 9 kts 113°
2026-05-07 20:13 51.41292 12.24631 469 ft 9 kts 182°
2026-05-07 20:13 51.41241 12.24611 471 ft 3 kts 194°
2026-05-07 20:14 51.41219 12.24602 467 ft 3 kts 194°
2026-05-07 20:14 51.41195 12.24592 467 ft 4 kts 194°
2026-05-07 20:14 51.41161 12.24580 468 ft 6 kts 189°
2026-05-07 20:14 51.41120 12.24581 468 ft 7 kts 168°
2026-05-07 20:15 51.41083 12.24631 471 ft 7 kts 144°
2026-05-07 20:15 51.41034 12.24653 467 ft 7 kts 169°
2026-05-07 20:15 51.41004 12.24708 468 ft 8 kts 94°
2026-05-07 20:15 51.41007 12.24786 470 ft 3 kts 85°
2026-05-07 20:16 51.41007 12.24791 471 ft 1 kts 85°
2026-05-07 20:16 51.41008 12.24804 472 ft 0 kts 85°